STARLINK-3286, 50171

Orbit data source: Space-Track

STARLINK-3286, 50171 is a payload satellite owned by SpaceX/Seattle (US) in LEO that was launched on Sat, 18 Dec 2021 UTC via an FALCON 9 launch vehicle from the Air Force Western Test Range (AFWTR). Payload-class satellites include a variety of spacecraft equipped with specific instruments for various scientific and technological missions. These include communications satellites like Starlink; space stations such as the ISS; scientific satellites like the Hubble; Earth observation satellites from companies like Planet Labs, Umbra, and HawkEye 360; GPS; miniature CubeSats for education and research; and military/defense satellites.

Loading next visibility...
Identifier
50171, 2021-125R
Orbit
LEO
Country
Flag of USUS
Related business
Manufacturer
SpaceX/Seattle
Mission
Operational Commercial Communications
Bus & Motor
STARLINK, Unknown motor
Mass
290 kg wet, ~270 kg dry
Launch date (UTC)
2021-12-18 (5 years ago)
Launch vehicle
FALCON 9
Launch site
Air Force Western Test Range (AFWTR)
Object type
Payload
Rocket body
Debris
Shape & HBR
Box + 1 Pan, 10.1 m
Radar Cross Section
13.562 m², Large (>1 m²)

Expand to show TLE details & history
Last TLE update: 5 hours ago

TLE from 5 hours ago
0 STARLINK-3286
1 50171U 21125R   26170.33335648  .00114976  00000-0  47518-2 0  9991
2 50171  53.1612 152.2864 0001714  98.4049 142.2163 15.23101686  5815
Epoch: 2026-06-19T08:00Z
TLE epoch observation values (Epoch: 2026-06-19T08:00:01.999Z)
Latitude
-44.41811°
Longitude
-8.3953°
Altitude
512.416 km
Speed
7.607 km/s
True Right ascension
01h 16m 42s
True Declination
-44° 14' 24"
Sunlit
Object was in daylight at epoch
Visualization orbit readout
Latitude
Unknown
Longitude
Unknown
Altitude
Unknown
Speed
Unknown
Apparent Right ascension
Unknown
Apparent Declination
Unknown
Sunlit
N/A
Visualization observer readout
Local Sidereal Time
00:01:52
Azimuth
Unknown
Elevation
Unknown
Doppler factor
Unknown
Orbital elements
Apogee altitude
497.925 km
Perigee altitude
495.569 km
Semi-major axis
6,874.884 km
Eccentricity
0.00017
Inclination
53.1612°
RAAN
152.2864°
Arg. of periapsis
98.4049°
True anomaly
142.22833°
Mean anomaly
142.2163°
Eccentric anomaly
142.22232°
Mean motion
3.80755 °/min
Orbital period
94.55 mins
BSTAR
0.0047518
Loading maneuver chart data...
Computing Atmospheric mass density...

Documentation

Showing up to 5 results
|